Home   Weather   Breda   Past weeks

Flag for Netherlands Past Weather in Breda, Netherlands — Yesterday and Last 2 Weeks

Now
30 °F

High level clouds.


Feels Like: 24 °F
Forecast: 23 / 36 °F
Wind: 6 mph from Northeast

Location: Gilze-Rijen

Current Time: Jan 20, 2017 at 11:38:37 pm

Latest Report: Jan 20, 2017 at 10:55 pm


Visibility: N/A

Pressure: 30.51 "Hg

Humidity: 64%

Dew Point: 19 °F

Location of BredaLocation

Past Weather in Breda — Graph

°F

Breda Temperature Yesterday

Maximum temperature yesterday: 37 °F (at 1:25 pm)
Minimum temperature yesterday: 19 °F (at 6:25 am)
Average temperature yesterday: 28 °F

High & Low Weather Summary for the Past Weeks

 TemperatureHumidityPressure
High50 °F (Jan 11, 12:43 pm)100% (Jan 5, 11:55 pm)30.74 "Hg (Jan 5, 11:55 pm)
Low19 °F (Jan 6, 12:25 am)45% (Jan 20, 1:25 pm)29.00 "Hg (Jan 12, 11:18 pm)
Average34 °F90%30.20 "Hg
* Reported Jan 5 10:25 pm — Jan 20 10:25 pm, Breda, Weather by CustomWeather, © 2017

Note: Actual official high and low records may vary slightly from our data, if they occured in-between our weather recording intervals... More about our weather records

Advertising

Breda Weather History for the Previous 24 Hours

Scroll right to see more
 ConditionsComfort  
Time TempWeatherWind HumidityBarometerVisibility
10:25 pm
Fri, Jan 20
30 °FPassing clouds.5 mph69%30.51 "HgN/A
9:55 pm30 °FChilly.5 mph69%30.51 "HgN/A
9:25 pm32 °FChilly.6 mph64%30.51 "HgN/A
8:55 pm32 °FOvercast.5 mph64%30.51 "HgN/A
8:25 pm32 °FOvercast.6 mph69%30.51 "HgN/A
7:55 pm32 °FOvercast.6 mph69%30.51 "HgN/A
7:25 pm30 °FOvercast.7 mph75%30.51 "HgN/A
6:55 pm30 °FOvercast.6 mph75%30.51 "HgN/A
6:25 pm30 °FOvercast.6 mph75%30.51 "HgN/A
5:55 pm30 °FOvercast.7 mph75%30.51 "HgN/A
5:25 pm34 °FOvercast.6 mph65%30.51 "HgN/A
4:55 pm34 °FPartly sunny.6 mph65%30.51 "HgN/A
4:25 pm37 °FOvercast.6 mph52%30.51 "HgN/A
3:55 pm39 °FOvercast.7 mph45%30.51 "HgN/A
3:25 pm39 °FOvercast.8 mph48%30.51 "HgN/A
2:55 pm41 °FOvercast.7 mph45%30.51 "HgN/A
2:25 pm41 °FOvercast.7 mph45%30.54 "HgN/A
1:55 pm41 °FOvercast.7 mph45%30.54 "HgN/A
1:25 pm39 °FOvercast.7 mph45%30.54 "HgN/A
12:55 pm37 °FPartly sunny.5 mph52%30.54 "HgN/A
12:25 pm37 °FPartly sunny.6 mph48%30.54 "HgN/A
11:55 am36 °FChilly.8 mph52%30.57 "HgN/A
11:25 am34 °FChilly.7 mph60%30.57 "HgN/A
10:55 am32 °FChilly.5 mph69%30.57 "HgN/A
10:25 am28 °FChilly.5 mph80%30.57 "HgN/A
9:55 am27 °FChilly.5 mph86%30.57 "HgN/A
9:25 am23 °FIce fog.3 mph86%30.57 "Hg6 mi
8:55 am23 °FCold.3 mph86%30.57 "HgN/A
8:33 am21 °FIce fog.5 mph93%30.57 "Hg6 mi
8:25 am21 °FIce fog.5 mph93%30.57 "Hg6 mi
7:55 am21 °FIce fog.2 mph93%30.57 "Hg4 mi
7:36 am23 °FIce fog.2 mph93%30.57 "Hg4 mi
7:19 am25 °FIce fog.3 mph86%30.57 "Hg4 mi
6:55 am23 °FCold.5 mph93%30.57 "HgN/A
6:25 am21 °FIce fog.5 mph93%30.57 "Hg6 mi
6:13 am21 °FIce fog.3 mph93%30.57 "Hg5 mi
5:59 am23 °FIce fog.2 mph93%30.57 "Hg4 mi
5:25 am25 °FIce fog.2 mph86%30.57 "Hg6 mi
4:55 am23 °FIce fog.3 mph93%30.57 "Hg6 mi
4:25 am23 °FIce fog.3 mph93%30.57 "Hg6 mi
4:00 am25 °FIce fog.5 mph86%30.57 "Hg5 mi
3:55 am25 °FIce fog.5 mph86%30.57 "Hg5 mi
3:25 am23 °FIce fog.3 mph86%30.57 "Hg4 mi
2:55 am25 °FCold.3 mph93%30.57 "HgN/A
2:25 am23 °FIce fog.5 mph93%30.57 "Hg6 mi
2:09 am25 °FIce fog.3 mph86%30.57 "Hg6 mi
1:55 am27 °FIce fog.3 mph86%30.57 "Hg6 mi
1:25 am25 °FIce fog.5 mph93%30.60 "Hg6 mi
12:55 am23 °FIce fog.5 mph93%30.60 "Hg4 mi
12:31 am25 °FIce fog.3 mph93%30.60 "Hg4 mi
12:08 am23 °FIce fog.3 mph93%30.60 "Hg5 mi
11:55 pm
Thu, Jan 19
25 °FIce fog.2 mph86%30.60 "Hg5 mi
11:25 pm27 °FIce fog.2 mph86%30.60 "Hg6 mi
Weather by CustomWeather, © 2017

See weather overviewHow to use our weather pages